Location: Katherine
(14.4670°S, 132.2670°E)
Time: 11:13:36
(UTC+09:30)

ISS - Visible Passes

Search period start: 08 July 2020 00:00
Search period end: 18 July 2020 00:00
Orbit: 417 x 421 km, 51.6° (Epoch: 08 July)

Date Brightness Start Highest point End Pass type
(mag) Time Alt. Az. Time Alt. Az. Time Alt. Az.
10 Jul -1.8 19:45:15 10° SSW 19:46:23 18° S 19:46:23 18° S visible
11 Jul -2.2 18:58:22 10° S 19:00:48 18° SE 19:03:10 10° E visible
11 Jul -0.6 20:35:10 10° W 20:36:19 15° W 20:36:19 15° W visible
12 Jul -2.2 19:46:45 10° WSW 19:49:54 36° NW 19:53:01 10° NNE visible
13 Jul -3.8 18:58:57 10° SW 19:02:21 89° NNW 19:05:42 10° NE visible
15 Jul -0.5 19:01:25 10° W 19:03:41 17° NW 19:05:56 10° NNW visible
